Regional Weather Roundup
Issued by NWS

Home | Current Version | Previous Version | Text Only | Print | Product List | Glossary On
Versions: 1 2 3 4 5 6 7 8 9 10 11 12 13 14 15 16 17 18 19 20 21 22 23 24 25 26 27 28 29 30 31 32 33 34 35 36 37 38 39 40 41 42 43 44 45 46 47 48 49 50
000
ASUS45 KBOU 280510
RWRCO

WEATHER ROUNDUP FOR COLORADO
NATIONAL WEATHER SERVICE DENVER/BOULDER CO
1100 PM MDT MON JUL 27 2015

NOTE: "FAIR" INDICATES FEW OR NO CLOUDS BELOW 12000 FEET WITH NO
SIGNIFICANT WEATHER AND/OR OBSTRUCTIONS TO VISIBILITY.

COZ001>005-013-030-031-280600-
...NORTHWEST COLORADO...

CITY           SKY/WX    TMP DP  RH WIND       PRES   REMARKS
CRAIG          CLEAR     60  31  33 W12       30.19R
HAYDEN         CLEAR     61  28  29 SW12      30.18R
MEEKER         CLEAR     66  33  29 N17G23    30.16R
MOUNT WERNER   NOT AVBL
STEAMBOAT SPGS CLEAR     62  36  38 W13       30.17R
WALDEN         CLEAR     54  34  47 NW13G20   30.21S
$$

COZ006>008-011-280600-
...WEST CENTRAL VALLEYS...

CITY           SKY/WX    TMP DP  RH WIND       PRES   REMARKS
GRAND JUNCTION CLEAR     78  25  14 NE5       29.96R
MONTROSE       CLEAR     67  34  29 E8        30.09R
EAGLE          CLEAR     64  36  34 E9        30.12R
RIFLE          CLEAR     76  30  18 NW14      30.05R
DELTA          CLEAR     71  32  23 E7        30.02R
NUCLA          CLEAR     66  27  22 E10       30.12R
$$

COZ017>023-064>068-280600-
...SOUTHWEST COLORADO...

CITY           SKY/WX    TMP DP  RH WIND       PRES   REMARKS
DURANGO        CLEAR     59  33  37 NE5       30.16R
CORTEZ         CLEAR     62  38  40 E9        30.10R
PAGOSA SPRINGS CLEAR     59  40  49 CALM      30.26R
TELLURIDE      CLEAR     59  31  35 SE6       30.38S
WOLF CREEK PAS NOT AVBL
$$

COZ009-010-012-014-032>034-037-058>063-280600-
...CENTRAL COLORADO...

CITY           SKY/WX    TMP DP  RH WIND       PRES   REMARKS
ASPEN          CLEAR     57  37  47 S8        30.21R
BUENA VISTA    CLEAR     64  26  24 W5        30.23R
COPPER MTN     CLEAR     55  21  26 SW16G23   30.53F
BERTHOUD PASS  FAIR      46  36  66 W25G39    30.55R
COTTONWOOD PAS CLEAR     64  18  16 W8        30.38S
GUNNISON       CLEAR     57  36  44 N5        30.26R
KREMMLING      CLEAR     55  32  41 CALM      30.16S
LEADVILLE      CLEAR     48  29  47 CALM      30.36S
MONARCH PASS   CLEAR     50  27  40 W35G40    30.64S
SALIDA         CLEAR     69  31  25 W13       30.27R
SUNLIGHT       CLEAR     55  25  30 CALM      30.45F
WILKERSON PASS CLEAR     54  23  30 SW10G21   30.48F
$$

COZ069>075-280600-
...SAN LUIS VALLEY/SANGRE DE CRISTO MOUNTAINS...

CITY           SKY/WX    TMP DP  RH WIND       PRES   REMARKS
ALAMOSA        CLEAR     55  43  63 SW3       30.21R
LA VETA PASS   CLEAR     57  36  44 MISG      30.40S
SAGUACHE       CLEAR     57  41  54 N8        30.25R
$$

COZ035-036-038>040-280600-
...NORTHERN COLORADO FRONT RANGE...

CITY           SKY/WX    TMP DP  RH WIND       PRES   REMARKS
DENVER INTL AP PTCLDY    80  35  19 W10       29.93R
DMNS CITY PARK   N/A     79  35  20 SW5       29.93R
AURORA         PTCLDY    75  42  30 SW8       29.97R
FRONT RANGE AP NOT AVBL
ERIE MUNI ARPT CLEAR     78  29  16 SW6       29.92R
BOULDER MUN AP CLEAR     73  36  25 SW6       29.93R
CENTENNIAL     PTCLDY    75  37  25 W7        29.98R
BROOMFIELD     NOT AVBL
FORT COLLINS   CLEAR     77  39  25 CALM      29.90R
LONGMONT       CLEAR     72  41  33 S5        29.92R
$$

COZ041-046-047-076>085-087-088-280600-
...PIKES PEAK/PALMER DIVIDE AND SOUTHERN FOOTHILLS...

CITY           SKY/WX    TMP DP  RH WIND       PRES   REMARKS
COLO. SPRINGS  PTCLDY    76  44  32 W7        30.03R
A. F. ACADEMY  CLEAR     76  35  23 W15       30.05R
ELLICOTT       CLEAR    N/A N/A N/A W7        30.01S
FALCON         CLEAR     65  48  53 W9        30.09S
FORT CARSON    CLEAR     76  44  31 W10       29.98S
LIMON          CLEAR     72  52  49 VRB6      29.93R
MONUMENT HILL  CLEAR     63  45  51 SW8       30.10S
TRINIDAD       PTCLDY    73  47  39 SW12      30.03R
$$

COZ042>045-048>051-090-091-280600-
...NORTHEAST COLORADO...

CITY           SKY/WX    TMP DP  RH WIND       PRES   REMARKS
GREELEY ARPT   CLEAR     68  50  52 N7        29.88R
AKRON            N/A    N/A N/A N/A MISG      29.83S
BURLINGTON     CLEAR     73  60  63 S13       29.84S
WRAY           CLEAR     76  65  70 SW3       29.77S
STERLING       NOT AVBL
HOLYOKE        CLEAR     77  70  78 S8        29.76S
FORT MORGAN    CLEAR     69  53  57 NW9       29.84R
$$

COZ086-089-092>099-280600-
...SOUTHEAST COLORADO...

CITY           SKY/WX    TMP DP  RH WIND       PRES   REMARKS
PUEBLO         CLEAR     76  48  37 W6        29.89R
LA JUNTA       MOCLDY    80  55  42 SW13      29.85S
LAMAR          PTCLDY    81  61  50 S14       29.81S
SPRINGFIELD      N/A     77  62  59 S18       29.94R
$$



USA.gov is the U.S. government's official web portal to all federal, state and local government web resources and services.